This is the latest recevied weather packets stored in our database for station/object KC8SWY-15. If no packets are shown the sender has not sent any weather packets the latest 1 day(s).
| Time | Temp. | Humidity | Pressure | Rain* | Wind** | Luminosity | Snow |
|---|---|---|---|---|---|---|---|
| 1777997969 | 9.44° C | 67% | 1007.9 hPa | 0 mm | 1.34 m/s, 285° | - | - |
| 1777997669 | 8.89° C | 67% | 1008 hPa | 0 mm | 1.79 m/s, 309° | - | - |
| 1777997369 | 8.89° C | 67% | 1008 hPa | 0 mm | 1.79 m/s, 287° | - | - |
| 1777997069 | 8.89° C | 69% | 1008.1 hPa | 0 mm | 1.79 m/s, 292° | - | - |
| 1777996769 | 8.89° C | 70% | 1008.3 hPa | 0 mm | 1.34 m/s, 267° | - | - |
| 1777996469 | 8.89° C | 72% | 1008.2 hPa | 0.25 mm | 1.34 m/s, 289° | - | - |
| 1777996169 | 8.33° C | 75% | 1008.1 hPa | 0.25 mm | 1.34 m/s, 294° | - | - |
| 1777995869 | 8.33° C | 75% | 1008.1 hPa | 0.51 mm | 0.89 m/s, 270° | - | - |
| 1777995569 | 8.33° C | 78% | 1008 hPa | 0.51 mm | 1.34 m/s, 290° | - | - |
| 1777995269 | 7.78° C | 78% | 1008.2 hPa | 0.51 mm | 1.34 m/s, 256° | - | - |
| 1777994969 | 7.78° C | 77% | 1008.3 hPa | 0.51 mm | 1.34 m/s, 254° | - | - |
| 1777994669 | 7.78° C | 78% | 1008.2 hPa | 0.76 mm | 0.89 m/s, 289° | - | - |
| 1777994369 | 7.22° C | 80% | 1008.2 hPa | 0.76 mm | 0.45 m/s, 284° | - | - |
| 1777994069 | 7.22° C | 81% | 1008.2 hPa | 1.02 mm | 0.45 m/s, 323° | - | - |
| 1777993769 | 7.22° C | 83% | 1008.4 hPa | 1.02 mm | 0.45 m/s, 293° | - | - |
| 1777993469 | 7.22° C | 82% | 1008.5 hPa | 1.02 mm | 0.45 m/s, 307° | - | - |
| 1777993169 | 7.22° C | 85% | 1008.8 hPa | 1.27 mm | 0.89 m/s, 293° | - | - |
| 1777992869 | 7.22° C | 84% | 1008.7 hPa | 1.02 mm | 0.89 m/s, 270° | - | - |
| 1777992569 | 6.67° C | 86% | 1008.6 hPa | 1.27 mm | 0.45 m/s, 277° | - | - |
| 1777992269 | 6.67° C | 86% | 1008.6 hPa | 1.02 mm | 0 m/s | - | - |
| 1777991969 | 6.67° C | 87% | 1008.7 hPa | 1.27 mm | 0.45 m/s, 244° | - | - |
| 1777991669 | 6.67° C | 87% | 1008.7 hPa | 1.27 mm | 0.89 m/s, 285° | - | - |
| 1777991369 | 6.67° C | 86% | 1008.7 hPa | 1.52 mm | 1.34 m/s, 288° | - | - |
| 1777991069 | 6.67° C | 86% | 1008.6 hPa | 1.27 mm | 0.45 m/s, 275° | - | - |
| 1777990769 | 6.67° C | 87% | 1008.4 hPa | 1.27 mm | 0 m/s | - | - |
* Rain latest hour (hover to see other rain measurements)
** Current wind speed in m/s (hover to see current wind gust speed)